Weather observations for the past three days for
McKinney - McKinney National Airport
Imperial (Metric)
Date Time (cdt) Wind (mph) Vis. (mi.) Weather Sky Cond. Temperature (ºF) Relative Humidity Wind Chill (°F) Heat Index (°F) Pressure Precipitation (in)
Air Dwpt 6 hour altimeter (in) sea level (mb) 1 hr 3 hr 6 hr
Max. Min.
20 04:53 E 8 10.00 Fair CLR 78.1 73 85% 81 30.11 1019.1
20 03:53 E 7 10.00 Fair CLR 78.1 72 82% 80 30.11 1018.9
20 02:53 E 5 10.00 Fair CLR 78.1 72 82% 80 30.11 1018.9
20 01:53 E 6 10.00 Fair CLR 79 71.1 77% 82 30.12 1019.3
20 00:53 E 6 10.00 Fair CLR 79 71.1 84.9 77 77% 82 30.12 1019.5
19 23:53 NE 5 10.00 Fair CLR 80.1 71.1 74% 84 30.14 1019.8
19 22:53 E 5 10.00 Fair CLR 81 70 69% 84 30.12 1019.4
19 21:53 E 6 10.00 A Few Clouds FEW110 81 70 69% 84 30.1 1018.7
19 20:53 E 7 10.00 Fair CLR 82 70 67% 86 30.09 1018.3
19 19:53 E 7 10.00 Fair CLR 82.9 70 65% 87 30.08 1018.0
19 18:53 E 9 10.00 Fair CLR 84.9 70 88 84 61% 89 30.07 1017.7
19 17:53 E 7 10.00 Fair CLR 84 66.9 57% 87 30.07 1017.7
19 16:53 E 10 G 21 10.00 Fair CLR 84 66.9 57% 87 30.07 1017.9
19 15:53 E 10 10.00 A Few Clouds FEW038 FEW070 87.1 66.9 51% 90 30.07 1017.7
19 14:53 E 10 10.00 Fair CLR 84.9 68 57% 88 30.08 1018.0
19 13:53 E 12 G 20 10.00 Mostly Cloudy BKN032 84.9 70 61% 89 30.09 1018.2
19 12:53 E 10 G 16 10.00 Partly Cloudy SCT033 86 70 86 73 59% 91 30.1 1018.6
19 11:53 E 9 10.00 Mostly Cloudy FEW025 SCT030 BKN035 84 70 63% 88 30.1 1018.8
19 10:53 E 10 G 18 10.00 Mostly Cloudy BKN022 BKN029 81 71.1 72% 85 30.09 1018.3
19 09:53 NE 10 10.00 Mostly Cloudy BKN013 BKN017 80.1 71.1 74% 84 30.09 1018.4
19 08:53 E 7 10.00 Overcast BKN011 OVC090 77 72 85% 78 30.09 1018.3
19 07:53 NE 8 10.00 Overcast OVC009 75 71.1 88% 75 30.07 1017.6
19 06:53 NE 5 10.00 A Few Clouds FEW010 73 71.1 78.1 73 94% 30.02 1016.1
19 05:53 E 6 10.00 Fair CLR 73 70 90% 30 1015.1
19 04:53 E 6 10.00 Overcast OVC019 73.9 70 88% 29.98 1014.6
19 03:53 E 5 10.00 Mostly Cloudy BKN020 73.9 68 82% 29.97 1014.2
19 02:53 E 3 10.00 Fair CLR 75 68 79% 76 29.97 1014.1
19 01:53 SE 14 10.00 Fair CLR 78.1 66.9 69% 80 29.97 1014.0
19 00:53 SE 10 10.00 Fair CLR 78.1 69.1 89.1 78.1 74% 80 29.96 1014.0
18 23:53 SE 12 G 22 10.00 Fair CLR 80.1 69.1 69% 83 29.94 1013.2
18 22:53 SE 15 G 26 10.00 Fair CLR 82 69.1 65% 85 29.92 1012.5
18 21:53 SE 16 G 25 10.00 A Few Clouds FEW049 84 70 63% 88 29.9 1011.7
18 20:53 SE 10 10.00 Fair CLR 84.9 70 61% 89 29.87 1010.8
18 19:53 SE 10 10.00 Fair CLR 87.1 70 57% 92 29.86 1010.5
18 18:53 SE 13 G 24 10.00 Partly Cloudy SCT080 89.1 70 93 88 53% 94 29.84 1009.9
18 17:53 SE 12 G 20 10.00 Fair CLR 91 69.1 49% 96 29.85 1010.1
18 16:53 SE 15 G 26 10.00 A Few Clouds FEW080 91.9 68 46% 96 29.86 1010.3
18 15:53 SE 12 G 25 10.00 Mostly Cloudy FEW060 BKN080 89.1 68 50% 93 29.86 1010.6
18 14:53 SE 16 G 26 10.00 Mostly Cloudy BKN085 90 69.1 50% 95 29.88 1011.0
18 13:53 S 17 10.00 Partly Cloudy FEW042 SCT050 91 69.1 49% 96 29.88 1011.2
18 12:53 SE 17 G 29 10.00 Mostly Cloudy BKN030 BKN035 89.1 70 53% 94 29.89 1011.5
18 11:53 SE 12 G 17 10.00 Mostly Cloudy BKN030 84 72 67% 90 29.89 1011.5
18 10:53 SE 20 G 26 10.00 Mostly Cloudy SCT028 BKN035 84 71.1 65% 89 29.9 1011.8
18 09:53 SE 15 10.00 Mostly Cloudy SCT023 BKN046 82.9 71.1 67% 88 29.91 1012.1
18 08:53 SE 12 10.00 Overcast BKN013 BKN023 OVC043 79 72 79% 82 29.91 1012.3
18 07:53 SE 10 10.00 Overcast BKN012 OVC021 77 72 85% 78 29.89 1011.4
18 06:53 SE 12 10.00 Overcast BKN017 OVC030 75.9 71.1 80.1 75.9 85% 76 29.88 1011.0
18 05:53 S 12 10.00 A Few Clouds FEW021 75.9 71.1 85% 76 29.86 1010.4
18 04:53 S 13 10.00 Light Rain FEW022 75.9 70 82% 77 29.85 1010.1
18 03:53 S 14 10.00 Light Rain CLR 77 70 79% 79 29.84 1009.6
18 02:53 S 16 G 24 10.00 Light Rain CLR 78.1 70 76% 80 29.83 1009.3
18 01:53 S 15 10.00 Light Rain CLR 79 71.1 77% 82 29.84 1009.7
18 00:53 S 14 G 24 10.00 Light Rain SCT023 80.1 73 91 80.1 79% 84 29.85 1010.1
17 23:53 S 20 G 31 10.00 Light Rain CLR 81 72 74% 85 29.85 1010.1
17 22:53 SE 21 G 29 10.00 Light Rain and Breezy FEW035 82.9 72 70% 88 29.84 1009.8
17 21:53 SE 15 G 26 10.00 Light Rain BKN038 BKN047 OVC060 84.9 72 65% 91 29.82 1008.9
17 20:53 SE 17 G 26 10.00 Mostly Cloudy BKN043 86 72 63% 92 29.8 1008.3
17 19:53 SE 17 G 32 10.00 Light Rain SCT048 BKN055 89.1 72 57% 96 29.78 1007.6
17 18:53 S 18 G 25 10.00 Fair CLR 91 71.1 93.9 90 52% 98 29.77 1007.2
17 17:53 S 15 10.00 Fair CLR 93 71.1 49% 100 29.77 1007.3
17 16:53 S 18 G 30 10.00 Partly Cloudy SCT050 93 71.1 49% 100 29.78 1007.5
17 15:53 SE 17 G 26 10.00 Mostly Cloudy BKN050 91.9 72 52% 100 29.79 1008.0
17 14:53 SE 13 G 24 10.00 Mostly Cloudy BKN047 91.9 72 52% 100 29.81 1008.6
17 13:53 SE 16 G 26 10.00 Mostly Cloudy BKN041 91.9 72 52% 100 29.84 1009.5
17 12:53 S 17 G 31 10.00 Mostly Cloudy BKN039 91 72 91 78.1 54% 99 29.85 1010.1
17 11:53 S 17 G 31 10.00 Mostly Cloudy BKN024 BKN033 89.1 73 59% 97 29.86 1010.4
17 09:53 S 20 G 28 10.00 Mostly Cloudy SCT017 BKN027 BKN033 84 73.9 72% 91 29.86 1010.5
17 08:53 S 14 10.00 Overcast OVC014 81 73.9 79% 86 29.87 1010.7
17 07:53 S 14 10.00 Overcast BKN015 OVC023 79 73.9 85% 83 29.86 1010.4
17 06:53 S 9 10.00 Overcast OVC016 78.1 73 80.1 77 85% 81 29.85 1010.1
17 05:53 S 8 10.00 Mostly Cloudy BKN018 77 72 85% 78 29.84 1009.9
Date Time (cdt) Wind (mph) Vis. (mi.) Weather Sky Cond. Air Dwpt Max. Min. Relative Humidity Wind Chill (°F) Heat Index (°F) altimeter (in) sea level (mb) 1 hr 3 hr 6 hr
6 hour
Temperature (ºF) Pressure Precipitation (in)